LEMUR-2-ALEX-MADDY (44407 NORAD) Tracking and Keplerian Element Data

This shows tracking and keplerian element data for the satellite.

Feedback or suggestion? Click here.




ElementValue
Catalog44407
NameLEMUR-2-ALEX-MADDY
Epoch Orbit428
Epoch Day214.89407702
Epoch Year2019
RAAN176.2879
Inclination97.4924
Eccentricity0.0024656
Argument of Perigee147.9678
Mean Anonmoly212.3057
Mean Motion15.11784485
Decay Rate5.78E-06
L11 44407U 19038X 19214.89407702 .00000578 00000-0 37420-4 0 9994
L22 44407 97.4924 176.2879 0024656 147.9678 212.3057 15.11784485 4289

Live tracking and technical data element details for LEMUR-2-ALEX-MADDY (NORAD 44407). LEMUR-2-ALEX-MADDY can be tracked NOW for your location showing map with azimuth and elevation plus other details from your city location.

Track the satellite on the map from your city or location and see movement details for azimuth, elevation, latitude, longitude, range, height, and movement on the map or in text.







IsCatalogInMostPopularTable: catalog: 44407, numindb: 12
Update: records affected: 1



GetName: 44407 LEMUR-2-ALEX-MADDY

Hit Count: updated at: Wed, 23 Oct 2019 00:22:57 GMT